Weather History for KFKN - October, 2011

Change the Weather History Date:

Tuesday, October 11, 2011

  Actual Average (KSFQ) Record (KSFQ)
Temperature  
Mean Temperature 68 °F -  
Max Temperature 73 °F 71 °F 87 °F (1990)
Min Temperature 62 °F 51 °F 35 °F (1964)
Cooling Degree Days 2    
Growing Degree Days 18 (Base 50)    
Moisture  
Dew Point 66 °F    
Average Humidity 92    
Maximum Humidity 100    
Minimum Humidity 78    
Precipitation  
Precipitation 0.00 in - - ()
Sea Level Pressure  
Sea Level Pressure 30.06 in    
Wind  
Wind Speed 2 mph (NE)    
Max Wind Speed 9 mph    
Max Gust Speed -    
Visibility 9 miles    
Events      
Averages and records for this station are not official NWS values.
T = Trace of Precipitation, MM = Missing Value Source: NWS Daily Summary

Daily Weather History Graph

Daily Weather History Graph

Search for Another Location

Airport or City:

Trip Planner

Search our weather history database for the weather conditions in past years. The results will help you decide how hot, cold, wet, or windy it might be!

Date:

Astronomy

Oct. 11, 2011 Rise Set
Actual Time 7:11 AM EDT 6:37 PM EDT
Civil Twilight 6:45 AM EDT 7:02 PM EDT
Nautical Twilight 6:15 AM EDT 7:32 PM EDT
Astronomical Twilight 5:45 AM EDT 8:02 PM EDT
Moon 6:09 PM EDT (10/11) 6:46 AM EDT (10/11)
Length of Visible Light 12h 17m
Length of Day
11h 25m
Full, 100% of the Moon is Illuminated
Oct 11
Full
Oct 11
Full
Oct 19
Last Quarter
Oct 26
New
Nov 2
First Quarter

Hourly Weather History & Observations

Time (EDT) Temp. Dew Point Humidity Pressure Visibility Wind Dir Wind Speed Gust Speed Precip Events Conditions
12:15 AM 62.6 °F 62.6 °F 100% 30.11 in 10.0 mi Calm Calm - N/A   Clear
12:35 AM 64.4 °F 62.6 °F 94% 30.10 in 10.0 mi Calm Calm - N/A   Clear
1:35 AM 62.6 °F 62.6 °F 100% 30.10 in 10.0 mi Calm Calm - N/A   Clear
1:55 AM 64.4 °F 64.4 °F 100% 30.10 in 10.0 mi Calm Calm - N/A   Clear
2:15 AM 64.4 °F 62.6 °F 94% 30.10 in 10.0 mi Calm Calm - N/A   Clear
2:55 AM 64.4 °F 64.4 °F 100% 30.09 in 10.0 mi Calm Calm - N/A   Clear
3:15 AM 62.6 °F 62.6 °F 100% 30.08 in 7.0 mi Calm Calm - N/A   Clear
3:35 AM 62.6 °F 62.6 °F 100% 30.08 in 7.0 mi Calm Calm - N/A   Clear
3:55 AM 62.6 °F 62.6 °F 100% 30.08 in 7.0 mi Calm Calm - N/A   Clear
4:35 AM 62.6 °F 62.6 °F 100% 30.07 in 7.0 mi Calm Calm - N/A   Clear
4:55 AM 64.4 °F 64.4 °F 100% 30.07 in 5.0 mi Calm Calm - N/A   Clear
5:15 AM 64.4 °F 64.4 °F 100% 30.07 in 5.0 mi Calm Calm - N/A   Scattered Clouds
5:35 AM 64.4 °F 64.4 °F 100% 30.07 in 4.0 mi Calm Calm - N/A   Mostly Cloudy
6:15 AM 66.2 °F 66.2 °F 100% 30.08 in 7.0 mi NE 4.6 mph - N/A   Mostly Cloudy
6:35 AM 66.2 °F 66.2 °F 100% 30.08 in 10.0 mi NE 3.5 mph - N/A   Scattered Clouds
6:55 AM 66.2 °F 66.2 °F 100% 30.08 in 7.0 mi NE 3.5 mph - N/A   Mostly Cloudy
7:15 AM 64.4 °F 64.4 °F 100% 30.08 in 10.0 mi ENE 3.5 mph - N/A   Mostly Cloudy
7:35 AM 64.4 °F 64.4 °F 100% 30.09 in 10.0 mi Calm Calm - N/A   Mostly Cloudy
7:55 AM 64.4 °F 64.4 °F 100% 30.09 in 10.0 mi North 3.5 mph - N/A   Mostly Cloudy
8:15 AM 66.2 °F 66.2 °F 100% 30.09 in 7.0 mi NE 4.6 mph - N/A   Clear
8:35 AM 66.2 °F 66.2 °F 100% 30.10 in 10.0 mi East 4.6 mph - N/A   Clear
8:55 AM 66.2 °F 66.2 °F 100% 30.10 in 10.0 mi NE 5.8 mph - N/A   Clear
9:15 AM 66.2 °F 66.2 °F 100% 30.11 in 10.0 mi ENE 3.5 mph - N/A   Clear
9:35 AM 68.0 °F 66.2 °F 94% 30.10 in 10.0 mi North 3.5 mph - N/A   Scattered Clouds
9:55 AM 68.0 °F 66.2 °F 94% 30.10 in 10.0 mi NNE 3.5 mph - N/A   Scattered Clouds
10:15 AM 68.0 °F 68.0 °F 100% 30.10 in 10.0 mi NNE 3.5 mph - N/A   Scattered Clouds
10:55 AM 69.8 °F 66.2 °F 88% 30.10 in 10.0 mi Calm Calm - N/A   Overcast
11:15 AM 69.8 °F 68.0 °F 94% 30.09 in 10.0 mi NNW 4.6 mph - N/A   Mostly Cloudy
11:35 AM 69.8 °F 68.0 °F 94% 30.08 in 10.0 mi NNW 3.5 mph - N/A   Mostly Cloudy
11:55 AM 69.8 °F 68.0 °F 94% 30.08 in 10.0 mi North 3.5 mph - N/A   Mostly Cloudy
12:15 PM 69.8 °F 66.2 °F 88% 30.06 in 10.0 mi NE 6.9 mph - N/A   Overcast
12:35 PM 69.8 °F 66.2 °F 88% 30.08 in 10.0 mi ENE 6.9 mph - N/A   Mostly Cloudy
12:55 PM 71.6 °F 66.2 °F 83% 30.07 in 10.0 mi ENE 6.9 mph - N/A   Scattered Clouds
1:15 PM 71.6 °F 66.2 °F 83% 30.06 in 10.0 mi NE 8.1 mph - N/A   Scattered Clouds
1:35 PM 71.6 °F 66.2 °F 83% 30.06 in 10.0 mi NE 6.9 mph - N/A   Mostly Cloudy
1:55 PM 73.4 °F 66.2 °F 78% 30.05 in 10.0 mi NE 9.2 mph - N/A   Overcast
2:15 PM 73.4 °F 66.2 °F 78% 30.04 in 10.0 mi ENE 8.1 mph - N/A   Overcast
2:35 PM 73.4 °F 66.2 °F 78% 30.04 in 10.0 mi ENE 6.9 mph - N/A   Overcast
2:55 PM 73.4 °F 66.2 °F 78% 30.04 in 10.0 mi East 4.6 mph - N/A   Overcast
3:15 PM 73.4 °F 66.2 °F 78% 30.04 in 10.0 mi East 6.9 mph - N/A   Overcast
3:35 PM 71.6 °F 66.2 °F 83% 30.03 in 10.0 mi ENE 6.9 mph - N/A   Overcast
4:15 PM 71.6 °F 66.2 °F 83% 30.02 in 10.0 mi ENE 4.6 mph - N/A   Overcast
4:35 PM 71.6 °F 66.2 °F 83% 30.01 in 10.0 mi NNE 5.8 mph - N/A   Overcast
4:55 PM 71.6 °F 66.2 °F 83% 30.00 in 10.0 mi NNE 5.8 mph - N/A   Overcast
5:15 PM 71.6 °F 66.2 °F 83% 30.00 in 10.0 mi NNE 5.8 mph - N/A   Overcast
5:35 PM 69.8 °F 66.2 °F 88% 30.00 in 10.0 mi NNE 5.8 mph - N/A   Overcast
5:55 PM 69.8 °F 66.2 °F 88% 30.00 in 10.0 mi East 6.9 mph - N/A   Overcast
6:15 PM 69.8 °F 66.2 °F 88% 30.00 in 10.0 mi ENE 8.1 mph - N/A   Overcast
6:55 PM 69.8 °F 66.2 °F 88% 29.99 in 10.0 mi NE 6.9 mph - N/A   Overcast
7:15 PM 69.8 °F 66.2 °F 88% 29.99 in 10.0 mi NE 4.6 mph - N/A   Overcast
7:35 PM 69.8 °F 68.0 °F 94% 29.99 in 10.0 mi NE 4.6 mph - N/A   Overcast
7:55 PM 69.8 °F 68.0 °F 94% 29.99 in 10.0 mi NE 5.8 mph - N/A   Overcast
8:15 PM 69.8 °F 68.0 °F 94% 29.99 in 10.0 mi ENE 4.6 mph - N/A   Overcast
8:35 PM 69.8 °F 68.0 °F 94% 29.99 in 10.0 mi NE 5.8 mph - N/A   Overcast
8:55 PM 69.8 °F 68.0 °F 94% 29.99 in 10.0 mi ENE 5.8 mph - N/A   Overcast
9:15 PM 69.8 °F 68.0 °F 94% 29.99 in 10.0 mi ENE 4.6 mph - N/A   Overcast
9:35 PM 69.8 °F 69.8 °F 100% 29.99 in 10.0 mi ENE 3.5 mph - N/A   Overcast
9:55 PM 69.8 °F 69.8 °F 100% 29.98 in 10.0 mi Calm Calm - N/A   Overcast
10:15 PM 69.8 °F 69.8 °F 100% 29.99 in 7.0 mi Calm Calm - N/A   Overcast
10:35 PM 69.8 °F 69.8 °F 100% 29.98 in 7.0 mi Calm Calm - N/A   Overcast
10:55 PM 69.8 °F 69.8 °F 100% 29.99 in 7.0 mi Calm Calm - N/A   Overcast
11:35 PM 69.8 °F 69.8 °F 100% 29.98 in 4.0 mi Calm Calm - N/A   Overcast
11:55 PM 69.8 °F 69.8 °F 100% 29.97 in 4.0 mi Calm Calm - N/A   Overcast